{"data":{"norad_id":53761,"epoch":"2026-05-25T04:20:37.686336Z","epoch_age_seconds":49557,"freshness":"FRESH","line1":"1 53761U 22109B   26145.18099174  .00017000  00000+0  44799-3 0  9996","line2":"2 53761  34.9779  97.3645 0006576 309.0575  50.9558 15.37604529207328","mean_motion":15.37604529,"eccentricity":0.0006576,"inclination_deg":34.9779,"raan_deg":97.3645,"arg_perigee_deg":309.0575,"mean_anomaly_deg":50.9558,"bstar":0.00044799,"rev_number":20732,"period_min":93.65216951699,"perigee_km":448.70296621589,"apogee_km":457.68753439149,"semimajor_km":6831.3322503037,"source":"CELESTRAK","updated_at":"2026-05-25T13:37:58.370675Z"}}